Weather History for Topeka, KS

Change the Weather History Date:

Tuesday, April 2, 2013

  Actual Average Record
Temperature  
Mean Temperature 41 °F 51 °F  
Max Temperature 54 °F 63 °F 90 °F (1889)
Min Temperature 27 °F 39 °F 14 °F (1970)
Degree Days  
Heating Degree Days 24 15  
Month to date heating degree days 48 30  
Since 1 July heating degree days 4369 4625  
Cooling Degree Days 0 0  
Month to date cooling degree days 0 0  
Year to date cooling degree days 0 3  
Moisture  
Dew Point 19 °F    
Average Humidity 44    
Maximum Humidity 63    
Minimum Humidity 24    
Precipitation  
Precipitation 0.00 in 0.10 in 1.06 in (1956)
Month to date precipitation 0.00 0.20  
Year to date precipitation 4.45 4.87  
Snow  
Snow 0.00 in 0.10 in 7.00 in (1926)
Month to date snowfall 0.0 0.1  
Year to date snowfall 23.9 11.1  
Since 1 July snowfall 29.3 17.6  
Snow Depth 0.00 in    
Sea Level Pressure  
Sea Level Pressure 30.31 in    
Wind  
Wind Speed 5 mph (ENE)    
Max Wind Speed 14 mph    
Max Gust Speed 18 mph    
Visibility 10 miles    
Events      
T = Trace of Precipitation, MM = Missing Value Source: NWS Daily Summary

Daily Weather History Graph

Daily Weather History Graph

Search for Another Location

Airport:

Trip Planner

Search our weather history database for the weather conditions in past years. The results will help you decide how hot, cold, wet, or windy it might be!

Date:

Astronomy

Apr. 02, 2013 Rise Set
Actual Time 7:05 AM CDT 7:47 PM CDT
Civil Twilight 6:38 AM CDT 8:14 PM CDT
Nautical Twilight 6:06 AM CDT 8:46 PM CDT
Astronomical Twilight 5:33 AM CDT 9:19 PM CDT
Moon 1:51 AM CDT (4/2) 11:59 AM CDT (4/2)
Length of Visible Light 13h 36m
Length of Day
12h 42m
Waning Gibbous, 55% of the Moon is Illuminated
Apr 2
Waning Gibbous
Apr 2
Last Quarter
Apr 10
New
Apr 18
First Quarter
Apr 25
Full

Hourly Weather History & Observations

Time (CDT) Temp. Windchill Dew Point Humidity Pressure Visibility Wind Dir Wind Speed Gust Speed Precip Events Conditions
12:53 AM 30.9 °F 26.2 °F 17.1 °F 57% 30.32 in 10.0 mi North 4.6 mph - N/A   Clear
1:53 AM 32.0 °F 28.7 °F 16.0 °F 52% 30.32 in 10.0 mi NNE 3.5 mph - N/A   Clear
2:53 AM 30.9 °F - 17.1 °F 57% 30.32 in 10.0 mi Calm Calm - N/A   Clear
3:53 AM 30.9 °F - 17.1 °F 57% 30.32 in 10.0 mi Calm Calm - N/A   Clear
4:53 AM 32.0 °F - 19.0 °F 59% 30.33 in 10.0 mi Calm Calm - N/A   Clear
5:53 AM 30.0 °F - 19.9 °F 66% 30.33 in 10.0 mi Calm Calm - N/A   Clear
6:53 AM 28.0 °F - 18.0 °F 66% 30.34 in 10.0 mi Calm Calm - N/A   Clear
7:53 AM 32.0 °F 26.4 °F 19.0 °F 59% 30.36 in 10.0 mi NE 5.8 mph - N/A   Clear
8:53 AM 35.1 °F 29.3 °F 19.9 °F 54% 30.37 in 10.0 mi ENE 6.9 mph - N/A   Clear
9:53 AM 39.0 °F 34.8 °F 19.9 °F 46% 30.38 in 10.0 mi East 5.8 mph - N/A   Clear
10:53 AM 41.0 °F 35.8 °F 19.0 °F 41% 30.36 in 10.0 mi East 8.1 mph - N/A   Clear
11:53 AM 44.1 °F 41.5 °F 18.0 °F 35% 30.35 in 10.0 mi NE 4.6 mph - N/A   Clear
12:53 PM 48.0 °F - 19.0 °F 32% 30.33 in 10.0 mi NNE 8.1 mph - N/A   Clear
1:53 PM 48.9 °F - 17.1 °F 28% 30.31 in 10.0 mi North 4.6 mph 16.1 mph N/A   Clear
2:53 PM 53.1 °F - 19.0 °F 26% 30.30 in 10.0 mi East 8.1 mph 17.3 mph N/A   Clear
3:53 PM 52.0 °F - 17.1 °F 25% 30.27 in 10.0 mi Variable 4.6 mph - N/A   Clear
4:53 PM 53.1 °F - 18.0 °F 25% 30.26 in 10.0 mi NE 9.2 mph - N/A   Clear
5:53 PM 53.1 °F - 19.0 °F 26% 30.26 in 10.0 mi East 6.9 mph - N/A   Clear
6:53 PM 51.1 °F - 19.0 °F 28% 30.26 in 10.0 mi ENE 9.2 mph - N/A   Clear
7:53 PM 48.0 °F - 21.0 °F 34% 30.26 in 10.0 mi ENE 5.8 mph - N/A   Clear
8:53 PM 44.1 °F 40.1 °F 21.9 °F 42% 30.28 in 10.0 mi ENE 6.9 mph - N/A   Clear
9:53 PM 42.1 °F 38.4 °F 21.0 °F 43% 30.29 in 10.0 mi ENE 5.8 mph - N/A   Clear
10:53 PM 39.9 °F 36.7 °F 21.0 °F 47% 30.29 in 10.0 mi East 4.6 mph - N/A   Clear
11:53 PM 39.9 °F - 21.0 °F 47% 30.30 in 10.0 mi Calm Calm - N/A   Clear